Location: Austin
(30.3000°N, 97.7500°W)
Time: 05:17:09
(UTC-06:00)

CZ-2D R/B - Pass Details

Date: 03 March 2026
Orbit: 527 x 593 km, 98.0° (Epoch: 5 March)

Event Time Altitude Azimuth Distance (km) Brightness Sun altitude
Rises 19:34:58 0° 179° (S) 2,737 6.9 -14.5°
Reaches altitude 10° 19:37:08 10° 185° (S) 1,855 6.1 -15.0°
Maximum altitude 19:41:01 48° 260° (W) 757 4.5 -15.8°
Drops below altitude 10° 19:45:01 10° 335° (NNW) 1,901 6.4 -16.7°
Sets 19:47:15 0° 341° (NNW) 2,813 7.2 -17.2°
